Wind_Speed
32 32 32 32 33 33 34 34 34 30 29 26 27 30 31 32 32 31 31 31 32 33 34 34 35 36 38 39 40 41 42 43 44 45 45 46 48 49 50 51 52 52 53 54
33 32 33 33 33 33 32 32 31 31 29 27 29 30 31 31 32 32 32 33 33 34 34 35 36 37 38 40 41 42 43 44 45 46 47 48 49 50 51 52 53 53 54 55
34 33 35 35 31 31 31 30 31 31 28 29 31 31 31 32 33 33 34 35 35 35 35 35 36 38 39 41 41 42 44 45 46 47 48 49 50 51 52 53 54 55 55 57
36 35 37 31 29 30 31 30 31 31 30 30 31 32 32 33 34 34 34 35 35 35 36 37 38 39 40 41 42 43 44 45 47 48 49 50 51 52 53 54 55 56 57 58
37 37 35 32 29 29 30 30 30 31 31 32 33 33 33 33 34 34 34 35 35 36 37 37 38 39 40 41 42 44 45 46 47 48 49 51 52 53 55 56 57 58 59 60
37 37 35 29 28 29 31 30 28 31 32 33 34 34 32 33 34 35 35 35 36 37 37 38 39 40 41 42 43 45 46 47 48 49 51 52 54 55 56 57 58 60 61 62
35 35 33 29 28 29 31 29 29 31 32 32 33 33 34 34 35 35 35 36 37 38 38 39 40 41 42 43 44 46 47 48 49 51 52 54 55 56 58 59 60 62 63 64
35 36 31 29 30 30 30 31 31 31 31 32 33 34 35 35 35 36 36 37 38 39 39 40 40 42 43 44 45 47 48 49 51 52 54 55 57 58 60 61 62 63 65 66
35 34 32 32 31 31 31 32 32 32 32 32 33 34 34 35 36 36 37 38 38 38 39 40 42 43 44 45 46 48 49 51 52 54 55 57 58 60 61 63 65 66 68 69
36 34 33 33 32 32 32 33 33 33 33 33 33 34 35 35 36 36 37 38 38 39 40 42 43 44 45 47 48 49 50 52 54 55 56 58 60 61 63 65 67 69 71 72
37 35 35 34 34 34 34 34 34 33 34 34 34 35 35 35 36 36 37 38 39 40 42 43 44 45 46 48 49 50 52 53 55 56 58 59 61 63 65 67 70 72 74 76
37 36 36 35 35 35 35 35 35 35 35 35 35 35 36 36 37 38 38 39 40 42 43 44 45 46 48 49 50 51 53 54 56 58 59 61 63 65 67 70 72 75 77 78
38 37 37 36 35 35 36 36 36 36 36 36 36 36 37 37 37 38 39 40 42 43 44 45 46 48 49 51 52 53 55 56 58 60 62 64 67 69 70 72 74 76 77 78
37 37 37 36 36 36 36 36 36 37 37 37 37 37 37 37 38 39 40 42 43 44 45 47 48 50 51 52 53 55 57 59 61 63 65 67 70 72 74 75 75 75 77 79
36 36 36 36 36 36 36 36 36 37 37 37 37 38 38 39 40 41 42 43 44 46 47 48 49 51 52 53 55 57 59 62 64 66 68 70 72 74 76 77 78 78 79 80
36 36 36 36 36 37 37 37 37 37 38 38 39 39 39 40 41 42 43 45 46 47 48 49 50 52 54 56 58 60 63 65 67 69 71 73 75 76 77 78 80 81 81 80
37 37 37 37 37 37 37 37 38 38 38 38 39 39 40 41 43 44 45 46 47 48 49 51 53 55 57 59 61 63 66 68 70 72 74 75 77 78 79 81 82 81 79 76
37 37 36 36 36 36 37 37 37 37 38 38 39 41 42 43 44 45 46 47 48 50 52 54 56 58 60 62 65 67 69 71 72 74 75 77 78 79 80 81 80 77 74 71
36 36 36 36 36 36 36 37 37 38 39 40 41 42 43 44 45 46 47 49 50 52 54 56 58 61 63 65 68 69 71 73 74 75 77 78 79 79 79 78 76 73 70 67
35 36 36 36 36 36 37 38 38 39 40 41 42 43 44 45 47 48 49 51 53 55 57 59 61 63 66 68 70 71 73 74 75 77 78 78 78 77 76 73 70 68 65 63
36 36 36 36 36 37 37 38 39 40 41 42 44 45 46 47 48 50 51 53 55 57 59 62 64 66 68 70 71 73 74 76 77 78 77 76 75 73 71 68 66 64 62 59
35 35 35 35 36 37 37 38 39 41 42 43 44 46 47 48 50 52 54 56 58 60 62 64 66 68 70 71 73 74 75 76 76 76 74 72 71 68 66 64 63 61 58 55
35 35 36 37 37 38 39 40 41 42 43 44 46 47 49 50 52 54 56 58 60 62 63 65 68 70 71 72 73 74 75 74 72 71 70 69 67 65 63 61 59 56 52 49
34 35 36 37 38 39 40 41 42 43 44 46 47 49 50 52 54 56 58 60 61 63 65 68 70 71 72 73 73 73 72 70 69 69 68 65 63 61 59 57 54 50 46 44
34 35 37 38 38 39 40 41 42 43 45 46 48 49 51 53 55 57 59 61 63 65 67 69 70 71 72 72 71 70 69 68 67 65 63 60 58 56 54 51 48 45 43 41
33 35 36 37 38 39 40 41 43 44 45 46 48 50 52 54 56 58 60 63 65 66 67 68 69 70 70 69 68 68 67 65 62 60 58 56 54 51 49 47 44 42 40 38
34 34 35 37 38 39 41 42 43 44 46 47 49 51 53 55 58 60 62 64 65 66 67 68 68 68 67 67 66 64 61 58 56 55 53 52 50 48 46 43 41 39 38 36
Wind_Direction
244 247 248 250 252 254 257 262 265 267 266 265 265 265 266 267 269 270 269 270 271 271 272 274 276 277 279 281 283 285 287 289 290 292 293 294 295 296 297 297 298 299 300 300
244 247 249 250 251 254 257 261 264 266 267 266 265 266 267 269 271 271 271 272 273 274 275 275 277 279 281 283 284 286 287 289 290 292 293 294 295 296 297 298 299 300 300 301
245 248 251 250 253 256 259 261 264 266 268 265 266 269 269 269 271 273 273 274 275 276 276 277 279 281 283 284 285 287 288 289 291 292 293 294 295 296 297 298 299 300 300 301
245 247 250 254 253 256 259 260 263 265 265 267 268 269 270 271 273 273 274 275 276 277 277 279 281 283 284 285 287 288 289 290 291 292 293 295 296 297 298 299 300 301 301 302
245 248 253 253 255 256 258 260 263 265 266 267 268 269 272 274 274 275 275 277 278 278 279 281 283 285 286 287 288 289 290 291 292 293 294 295 297 298 298 299 300 301 302 302
246 250 254 255 255 257 260 262 264 265 265 266 268 271 273 274 275 276 277 278 279 280 281 283 284 285 286 287 288 289 290 292 293 294 295 296 297 298 299 300 301 302 302 303
247 251 254 257 259 259 261 266 264 263 264 266 269 272 274 276 277 278 279 279 280 281 283 284 285 286 287 288 289 291 292 293 294 295 296 297 298 299 300 301 301 302 303 303
248 251 256 259 262 262 264 264 265 266 267 269 271 273 276 277 278 279 279 280 281 283 283 285 286 287 289 290 291 292 293 294 295 297 298 299 299 300 300 301 302 302 303 303
249 253 256 258 261 263 265 266 267 269 270 271 273 275 277 278 278 279 280 282 284 285 285 287 288 289 290 292 293 294 295 296 297 298 298 299 300 300 301 302 302 303 303 304
248 251 255 257 259 262 264 266 268 270 271 272 274 276 278 279 280 280 282 283 285 286 287 288 290 291 292 293 294 295 296 297 298 298 299 300 301 302 302 303 303 304 304 304
249 251 254 256 259 261 264 266 268 270 272 275 276 278 279 280 281 282 283 285 286 287 289 290 291 292 293 294 295 296 298 298 299 300 300 301 302 303 303 304 304 305 305 305
248 250 253 255 258 262 265 267 269 271 274 276 278 279 281 282 283 284 285 287 288 289 291 292 293 294 295 296 297 298 299 299 300 301 301 302 303 303 304 305 305 306 306 306
248 250 253 256 259 262 265 268 270 272 275 277 279 281 283 284 285 286 288 289 290 291 292 293 294 295 296 297 298 299 300 300 301 302 302 303 304 304 305 305 306 306 307 307
248 251 253 256 259 262 265 267 270 273 276 278 280 282 283 285 286 287 289 290 292 293 294 295 295 296 297 298 299 300 301 302 302 303 304 304 305 305 305 306 306 307 307 307
249 251 254 256 259 262 265 267 270 273 276 278 280 282 284 286 287 288 290 292 293 294 295 296 296 297 298 299 300 301 302 303 303 304 304 305 305 305 306 307 307 307 308 307
249 252 255 258 261 263 265 268 271 273 276 278 280 282 284 286 287 289 291 293 294 295 296 296 297 298 299 300 301 302 303 303 304 304 304 305 305 306 306 307 308 308 309 308
250 253 256 259 261 263 266 268 271 274 276 279 281 283 285 287 289 290 292 293 294 295 296 297 298 299 300 301 302 302 303 304 304 304 305 305 306 306 307 307 308 309 309 309
250 253 256 260 262 265 268 270 272 274 277 279 281 283 285 287 289 291 292 294 295 296 297 298 299 300 301 302 302 303 304 304 304 305 305 306 306 307 307 308 309 309 309 309
250 254 258 261 264 267 269 271 273 275 278 280 283 284 286 288 289 291 293 294 295 296 298 299 300 301 302 302 303 304 304 304 305 305 306 306 307 308 308 309 309 309 309 309
252 256 259 262 264 267 269 271 274 277 280 282 284 285 287 289 290 292 293 295 296 297 299 299 300 301 302 303 304 304 304 305 306 306 307 307 308 308 309 309 309 309 309 309
255 258 260 262 265 268 271 273 276 278 281 283 284 286 288 289 291 292 294 295 297 298 299 300 301 302 303 303 304 304 305 305 306 307 307 308 308 309 309 309 309 309 309 308
257 259 261 264 267 270 273 276 278 280 282 284 285 287 289 290 292 293 295 296 298 299 300 301 302 303 303 304 305 305 306 306 307 308 308 309 309 310 310 310 309 309 308 307
258 260 263 266 269 272 275 277 279 281 283 285 286 288 289 291 293 294 296 297 298 300 301 301 303 304 305 305 306 306 307 307 308 308 309 309 310 310 310 311 310 309 308 307
260 262 264 267 270 273 275 278 280 282 284 286 287 289 291 292 294 296 297 298 300 301 302 303 304 305 306 306 307 307 308 308 308 309 309 309 309 310 310 311 311 309 308 307
263 264 266 268 271 274 277 279 281 283 285 287 289 290 292 294 296 297 298 300 301 302 304 305 305 306 307 307 308 308 308 309 309 309 310 309 310 310 311 311 311 310 309 308
265 267 269 271 273 275 278 280 283 285 287 288 290 292 295 296 298 299 301 302 303 304 305 306 307 307 308 308 308 309 309 309 310 310 310 310 310 311 311 311 311 311 310 309
268 269 271 273 275 278 280 282 284 287 288 290 292 294 296 298 299 301 302 303 304 305 306 307 308 308 308 309 309 310 310 310 311 311 311 311 311 311 311 311 311 311 311 309
Height
5686 5688 5691 5693 5695 5695 5696 5698 5699 5702 5703 5705 5704 5703 5703 5703 5704 5704 5705 5705 5705 5704 5704 5703 5702 5701 5699 5698 5696 5693 5691 5688 5685 5682 5678 5674 5671 5666 5662 5657 5652 5647 5642 5637
5678 5680 5682 5684 5686 5688 5689 5691 5692 5693 5696 5697 5695 5695 5696 5696 5696 5696 5697 5696 5696 5696 5695 5694 5693 5692 5690 5688 5686 5683 5681 5678 5674 5671 5667 5663 5659 5654 5650 5645 5640 5635 5629 5624
5670 5672 5673 5675 5681 5681 5683 5684 5685 5685 5689 5688 5687 5688 5688 5688 5688 5688 5688 5688 5687 5687 5686 5685 5684 5682 5680 5678 5675 5673 5670 5666 5663 5659 5655 5651 5647 5642 5637 5632 5627 5621 5616 5610
5662 5664 5664 5673 5674 5675 5675 5677 5678 5678 5679 5680 5679 5679 5679 5679 5679 5679 5679 5678 5678 5677 5676 5675 5673 5672 5670 5667 5665 5662 5658 5655 5651 5648 5643 5639 5634 5629 5624 5619 5614 5608 5602 5596
5653 5655 5658 5663 5666 5667 5667 5669 5671 5670 5671 5671 5670 5670 5672 5671 5671 5670 5670 5669 5669 5668 5666 5665 5663 5661 5659 5656 5653 5650 5647 5643 5639 5635 5631 5626 5622 5616 5611 5606 5600 5594 5587 5581
5645 5647 5650 5657 5659 5659 5660 5661 5664 5662 5662 5662 5662 5663 5664 5663 5662 5661 5661 5660 5659 5658 5656 5655 5653 5651 5648 5645 5642 5639 5635 5631 5627 5623 5618 5614 5608 5603 5597 5591 5586 5579 5573 5566
5638 5639 5643 5648 5650 5651 5653 5655 5654 5653 5653 5653 5654 5655 5655 5654 5653 5652 5651 5650 5649 5648 5646 5644 5642 5640 5637 5634 5631 5627 5623 5619 5615 5610 5605 5600 5595 5589 5583 5577 5571 5565 5558 5551
5630 5632 5638 5641 5641 5643 5644 5644 5644 5645 5645 5646 5646 5646 5645 5645 5644 5643 5642 5641 5639 5638 5636 5634 5632 5629 5626 5623 5619 5615 5611 5607 5602 5597 5592 5586 5580 5574 5568 5561 5555 5548 5541 5535
5624 5628 5631 5632 5633 5634 5634 5635 5636 5636 5637 5637 5637 5636 5636 5635 5634 5633 5632 5631 5629 5627 5625 5623 5620 5618 5614 5611 5607 5603 5599 5594 5589 5583 5577 5571 5565 5559 5553 5545 5538 5531 5524 5516
5615 5619 5621 5623 5624 5625 5626 5626 5627 5628 5628 5628 5628 5627 5627 5626 5625 5624 5622 5621 5619 5617 5615 5612 5609 5606 5602 5598 5594 5590 5585 5580 5575 5569 5563 5557 5550 5544 5537 5529 5521 5513 5505 5497
5606 5610 5612 5614 5615 5616 5617 5618 5618 5619 5619 5619 5619 5618 5618 5617 5615 5614 5612 5610 5608 5606 5603 5600 5597 5593 5590 5586 5581 5577 5572 5566 5561 5555 5549 5542 5535 5528 5520 5512 5502 5494 5485 5476
5599 5602 5603 5605 5607 5608 5608 5609 5610 5610 5610 5610 5609 5609 5608 5607 5605 5604 5602 5600 5597 5595 5592 5588 5585 5581 5577 5573 5568 5563 5558 5552 5546 5540 5533 5526 5519 5513 5504 5495 5486 5475 5464 5454
5590 5592 5594 5596 5598 5599 5600 5600 5601 5601 5601 5600 5600 5599 5598 5597 5595 5593 5591 5589 5586 5583 5580 5576 5572 5568 5564 5559 5554 5549 5543 5538 5531 5525 5517 5510 5502 5494 5488 5480 5469 5458 5446 5435
5580 5583 5585 5587 5589 5590 5591 5591 5592 5592 5591 5591 5590 5589 5588 5587 5585 5583 5580 5577 5574 5571 5568 5564 5560 5555 5550 5545 5540 5535 5529 5522 5515 5508 5501 5493 5484 5475 5467 5459 5452 5443 5430 5416
5571 5574 5576 5578 5580 5581 5582 5582 5582 5582 5582 5581 5581 5579 5578 5576 5574 5572 5569 5566 5563 5559 5555 5551 5546 5542 5536 5531 5526 5520 5513 5507 5499 5492 5483 5475 5466 5457 5447 5438 5428 5420 5411 5400
5562 5565 5567 5569 5570 5571 5572 5573 5573 5573 5572 5571 5570 5569 5567 5565 5563 5560 5557 5554 5550 5546 5542 5538 5533 5528 5522 5517 5511 5505 5497 5490 5482 5474 5465 5456 5447 5437 5428 5417 5407 5398 5388 5377
5553 5555 5557 5559 5560 5561 5562 5563 5563 5562 5562 5561 5560 5558 5556 5554 5552 5549 5545 5542 5538 5533 5529 5524 5519 5514 5508 5501 5495 5488 5481 5473 5464 5455 5446 5437 5427 5417 5407 5397 5386 5376 5366 5355
5544 5546 5548 5549 5551 5552 5552 5552 5552 5552 5551 5550 5549 5547 5545 5543 5540 5537 5533 5529 5525 5520 5515 5510 5505 5499 5492 5485 5478 5470 5462 5454 5445 5436 5427 5417 5407 5397 5386 5375 5365 5355 5345 5336
5534 5536 5538 5540 5541 5542 5542 5542 5542 5542 5541 5539 5538 5536 5533 5531 5528 5524 5520 5516 5511 5507 5501 5495 5489 5483 5476 5468 5460 5452 5444 5435 5426 5416 5406 5396 5386 5376 5365 5355 5344 5335 5326 5317
5525 5527 5529 5530 5531 5532 5532 5532 5531 5531 5529 5528 5526 5524 5521 5518 5515 5511 5507 5502 5497 5492 5487 5480 5473 5466 5458 5450 5442 5433 5424 5415 5406 5396 5386 5376 5366 5356 5345 5335 5325 5316 5308 5299
5516 5518 5519 5520 5521 5521 5521 5521 5520 5519 5518 5516 5514 5511 5509 5505 5502 5497 5493 5489 5483 5477 5471 5464 5456 5449 5441 5432 5423 5414 5405 5395 5386 5376 5366 5356 5346 5336 5326 5317 5308 5299 5291 5283
5507 5508 5509 5510 5511 5511 5510 5510 5509 5508 5506 5504 5501 5499 5496 5492 5488 5484 5478 5473 5468 5461 5455 5447 5439 5431 5422 5413 5404 5395 5385 5375 5366 5356 5346 5336 5326 5317 5308 5299 5290 5282 5274 5267
5497 5498 5499 5500 5500 5500 5499 5498 5497 5496 5494 5491 5489 5486 5482 5478 5474 5469 5465 5458 5452 5445 5438 5430 5422 5413 5404 5395 5385 5375 5366 5356 5346 5336 5327 5318 5309 5300 5291 5283 5274 5266 5259 5252
5487 5488 5489 5490 5489 5489 5488 5487 5485 5483 5481 5478 5475 5472 5468 5464 5459 5454 5448 5442 5435 5428 5421 5413 5404 5395 5385 5376 5366 5357 5347 5337 5328 5319 5310 5301 5292 5283 5275 5267 5258 5251 5245 5239
5477 5478 5479 5479 5478 5477 5476 5475 5473 5471 5468 5465 5462 5458 5453 5449 5444 5439 5433 5426 5419 5411 5404 5395 5386 5376 5367 5357 5348 5338 5329 5319 5310 5301 5293 5284 5276 5268 5260 5253 5245 5239 5233 5228
5467 5468 5468 5467 5467 5466 5465 5463 5461 5458 5456 5452 5448 5444 5439 5434 5429 5423 5417 5410 5402 5394 5386 5377 5368 5359 5349 5340 5330 5321 5312 5302 5293 5285 5276 5268 5261 5254 5247 5240 5234 5228 5222 5217
5457 5457 5457 5456 5455 5454 5453 5451 5448 5445 5442 5439 5435 5430 5425 5420 5414 5407 5400 5393 5385 5377 5368 5360 5350 5341 5332 5323 5313 5304 5295 5286 5278 5270 5262 5255 5248 5241 5235 5229 5223 5218 5212 5207